FFL1201 KVNY-KSJC

Flight info

Callsign FFL1201
Flight time 1h 9m
Altitude 24000
Route CANOG3 GMN DCT KLIDE DCT
Aircraft TBM8/L-SBFGRW/S

Departure

Time 2026-04-22 21:01
Airport Van Nuys Airport (KVNY)

Arrival

Time 2026-04-22 22:10
Airport Norman Y. Mineta San Jose International Airport (KSJC)
Time Latitude Longitude Altitude Speed Heading
2026-04-22 20:45 34.20389 -118.49163 806 ft 0 kts 270°
2026-04-22 20:55 34.20389 -118.49165 806 ft 2 kts 262°
2026-04-22 20:55 34.20379 -118.49168 806 ft 1 kts 128°
2026-04-22 20:55 34.20376 -118.49158 806 ft 1 kts 93°
2026-04-22 20:55 34.20376 -118.49157 806 ft 0 kts 91°
2026-04-22 20:56 34.20383 -118.49134 806 ft 9 kts 53°
2026-04-22 20:56 34.20469 -118.49109 806 ft 12 kts 359°
2026-04-22 20:56 34.20535 -118.49113 806 ft 8 kts 356°
2026-04-22 20:56 34.20594 -118.49119 806 ft 10 kts 354°
2026-04-22 20:57 34.20686 -118.49128 806 ft 17 kts 356°
2026-04-22 20:57 34.20831 -118.49141 806 ft 23 kts 355°
2026-04-22 20:57 34.20980 -118.49155 806 ft 19 kts 355°
2026-04-22 20:57 34.21105 -118.49167 806 ft 18 kts 355°
2026-04-22 20:58 34.21223 -118.49178 806 ft 17 kts 355°
2026-04-22 20:58 34.21337 -118.49190 806 ft 17 kts 354°
2026-04-22 20:58 34.21470 -118.49202 806 ft 22 kts 353°
2026-04-22 20:58 34.21614 -118.49223 806 ft 19 kts 356°
2026-04-22 20:59 34.21737 -118.49229 806 ft 16 kts 360°
2026-04-22 20:59 34.21843 -118.49235 806 ft 14 kts
2026-04-22 20:59 34.21877 -118.49214 806 ft 0 kts 71°
2026-04-22 20:59 34.21879 -118.49204 806 ft 5 kts 81°
2026-04-22 21:00 34.21872 -118.49122 806 ft 12 kts 144°
2026-04-22 21:00 34.21844 -118.49116 806 ft 15 kts 176°
2026-04-22 21:00 34.21490 -118.49086 806 ft 85 kts 176°
2026-04-22 21:00 34.20763 -118.49010 1025 ft 117 kts 173°
2026-04-22 21:01 34.19894 -118.48865 1456 ft 132 kts 173°
2026-04-22 21:01 34.18980 -118.48725 2062 ft 133 kts 188°
2026-04-22 21:01 34.18282 -118.49321 2745 ft 127 kts 239°
2026-04-22 21:01 34.18076 -118.50370 3317 ft 140 kts 269°
2026-04-22 21:02 34.18387 -118.51574 3688 ft 159 kts 296°
2026-04-22 21:02 34.19033 -118.52672 4267 ft 163 kts 308°
2026-04-22 21:02 34.19767 -118.53754 4779 ft 171 kts 306°
2026-04-22 21:02 34.20529 -118.54880 5270 ft 176 kts 306°
2026-04-22 21:03 34.21319 -118.56043 5809 ft 181 kts 306°
2026-04-22 21:03 34.22150 -118.57200 6381 ft 184 kts 315°
2026-04-22 21:03 34.23269 -118.57969 6925 ft 188 kts 336°
2026-04-22 21:03 34.24471 -118.58516 7477 ft 187 kts 334°
2026-04-22 21:04 34.25693 -118.59119 8053 ft 186 kts 333°
2026-04-22 21:04 34.26890 -118.59713 8632 ft 186 kts 333°
2026-04-22 21:04 34.28084 -118.60301 9238 ft 185 kts 332°
2026-04-22 21:04 34.29273 -118.60885 9848 ft 184 kts 331°
2026-04-22 21:05 34.30453 -118.61469 10402 ft 183 kts 332°
2026-04-22 21:05 34.31627 -118.62040 10938 ft 181 kts 330°
2026-04-22 21:05 34.32790 -118.62619 11516 ft 180 kts 329°
2026-04-22 21:05 34.33952 -118.63183 12081 ft 180 kts 329°
2026-04-22 21:06 34.35091 -118.63747 12631 ft 179 kts 328°
2026-04-22 21:06 34.36239 -118.64321 13186 ft 178 kts 328°
2026-04-22 21:06 34.37386 -118.64881 13787 ft 177 kts 328°
2026-04-22 21:06 34.38527 -118.65437 14330 ft 176 kts 327°
2026-04-22 21:07 34.39660 -118.65996 14849 ft 175 kts 326°
2026-04-22 21:07 34.40783 -118.66556 15358 ft 174 kts 326°
2026-04-22 21:07 34.41900 -118.67107 15881 ft 173 kts 325°
2026-04-22 21:07 34.43011 -118.67652 16386 ft 172 kts 325°
2026-04-22 21:08 34.44158 -118.68219 16669 ft 185 kts 325°
2026-04-22 21:08 34.45379 -118.68825 16984 ft 193 kts 326°
2026-04-22 21:08 34.46625 -118.69444 17427 ft 194 kts 325°
2026-04-22 21:08 34.47879 -118.70066 17877 ft 196 kts 326°
2026-04-22 21:09 34.49145 -118.70684 18295 ft 197 kts 326°
2026-04-22 21:09 34.50415 -118.71301 18656 ft 196 kts 325°
2026-04-22 21:09 34.51678 -118.71934 19055 ft 197 kts 324°
2026-04-22 21:09 34.52942 -118.72568 19459 ft 197 kts 324°
2026-04-22 21:10 34.54216 -118.73192 19858 ft 198 kts 324°
2026-04-22 21:10 34.55484 -118.73825 20290 ft 196 kts 323°
2026-04-22 21:10 34.56750 -118.74456 20722 ft 197 kts 324°
2026-04-22 21:10 34.58018 -118.75074 21145 ft 197 kts 323°
2026-04-22 21:11 34.59290 -118.75690 21580 ft 197 kts 323°
2026-04-22 21:11 34.60557 -118.76310 22006 ft 196 kts 323°
2026-04-22 21:11 34.61821 -118.76930 22387 ft 195 kts 321°
2026-04-22 21:11 34.63062 -118.77569 22824 ft 192 kts 320°
2026-04-22 21:12 34.64297 -118.78194 23179 ft 193 kts 323°
2026-04-22 21:12 34.65548 -118.78783 23514 ft 192 kts 322°
2026-04-22 21:12 34.66780 -118.79386 23796 ft 190 kts 321°
2026-04-22 21:12 34.68024 -118.80020 23919 ft 199 kts 320°
2026-04-22 21:13 34.69346 -118.80697 23954 ft 213 kts 322°
2026-04-22 21:13 34.70767 -118.81388 23958 ft 226 kts 324°
2026-04-22 21:13 34.72247 -118.82126 23989 ft 236 kts 323°
2026-04-22 21:13 34.73790 -118.82916 24013 ft 245 kts 323°
2026-04-22 21:14 34.75396 -118.83727 24031 ft 254 kts 324°
2026-04-22 21:14 34.77062 -118.84546 24013 ft 262 kts 325°
2026-04-22 21:14 34.78769 -118.85385 24008 ft 267 kts 325°
2026-04-22 21:14 34.80404 -118.86396 24007 ft 260 kts 315°
2026-04-22 21:15 34.81800 -118.87755 24034 ft 256 kts 307°
2026-04-22 21:15 34.83099 -118.89243 24022 ft 258 kts 306°
2026-04-22 21:15 34.84394 -118.90760 24044 ft 259 kts 306°
2026-04-22 21:15 34.85694 -118.92292 24005 ft 261 kts 306°
2026-04-22 21:16 34.87012 -118.93823 24009 ft 262 kts 307°
2026-04-22 21:16 34.88337 -118.95361 24045 ft 264 kts 307°
2026-04-22 21:16 34.89669 -118.96909 24059 ft 265 kts 307°
2026-04-22 21:16 34.91006 -118.98467 24013 ft 267 kts 307°
2026-04-22 21:17 34.92340 -119.00028 24009 ft 265 kts 307°
2026-04-22 21:17 34.93690 -119.01571 24052 ft 267 kts 308°
2026-04-22 21:17 34.95036 -119.03128 24017 ft 266 kts 307°
2026-04-22 21:17 34.96365 -119.04694 24018 ft 266 kts 307°
2026-04-22 21:18 34.97697 -119.06251 23990 ft 264 kts 307°
2026-04-22 21:18 34.99014 -119.07804 24006 ft 263 kts 307°
2026-04-22 21:18 35.00335 -119.09344 23984 ft 262 kts 306°
2026-04-22 21:18 35.01652 -119.10882 23998 ft 262 kts 307°
2026-04-22 21:19 35.02975 -119.12405 24006 ft 261 kts 307°
2026-04-22 21:19 35.04294 -119.13929 24011 ft 261 kts 307°
2026-04-22 21:19 35.05609 -119.15457 24012 ft 261 kts 307°
2026-04-22 21:19 35.06919 -119.16986 24013 ft 261 kts 307°
2026-04-22 21:20 35.08229 -119.18517 24013 ft 261 kts 307°
2026-04-22 21:20 35.09537 -119.20047 24014 ft 260 kts 307°
2026-04-22 21:20 35.10845 -119.21578 24022 ft 260 kts 307°
2026-04-22 21:20 35.12152 -119.23109 24022 ft 260 kts 307°
2026-04-22 21:21 35.13460 -119.24640 24019 ft 260 kts 307°
2026-04-22 21:21 35.14767 -119.26171 24035 ft 260 kts 307°
2026-04-22 21:21 35.16074 -119.27702 24027 ft 260 kts 307°
2026-04-22 21:21 35.17379 -119.29232 24024 ft 260 kts 307°
2026-04-22 21:22 35.18683 -119.30760 24022 ft 259 kts 307°
2026-04-22 21:22 35.19984 -119.32287 24026 ft 259 kts 307°
2026-04-22 21:22 35.21282 -119.33814 24023 ft 259 kts 306°
2026-04-22 21:22 35.22572 -119.35338 24082 ft 256 kts 307°
2026-04-22 21:23 35.23852 -119.36843 24141 ft 254 kts 306°
2026-04-22 21:23 35.25126 -119.38340 24166 ft 254 kts 306°
2026-04-22 21:23 35.26395 -119.39833 24175 ft 254 kts 306°
2026-04-22 21:23 35.27670 -119.41333 24188 ft 255 kts 307°
2026-04-22 21:24 35.28950 -119.42834 24197 ft 256 kts 307°
2026-04-22 21:24 35.30236 -119.44339 24192 ft 256 kts 306°
2026-04-22 21:24 35.31514 -119.45853 24213 ft 256 kts 306°
2026-04-22 21:24 35.32799 -119.47370 24203 ft 257 kts 306°
2026-04-22 21:25 35.34086 -119.48889 24196 ft 257 kts 306°
2026-04-22 21:25 35.35372 -119.50408 24196 ft 257 kts 306°
2026-04-22 21:25 35.36660 -119.51926 24195 ft 257 kts 306°
2026-04-22 21:25 35.37946 -119.53445 24199 ft 257 kts 306°
2026-04-22 21:26 35.39230 -119.54964 24194 ft 256 kts 307°
2026-04-22 21:26 35.40498 -119.56461 24196 ft 256 kts 307°
2026-04-22 21:26 35.41779 -119.57974 24198 ft 256 kts 307°
2026-04-22 21:26 35.43078 -119.59508 24199 ft 256 kts 307°
2026-04-22 21:27 35.44359 -119.61023 24203 ft 256 kts 307°
2026-04-22 21:27 35.45638 -119.62536 24202 ft 256 kts 307°
2026-04-22 21:27 35.46900 -119.64030 24201 ft 255 kts 306°
2026-04-22 21:27 35.48177 -119.65543 24219 ft 255 kts 306°
2026-04-22 21:28 35.49456 -119.67059 24208 ft 256 kts 306°
2026-04-22 21:28 35.50736 -119.68573 24204 ft 255 kts 306°
2026-04-22 21:28 35.52011 -119.70088 24205 ft 255 kts 306°
2026-04-22 21:28 35.53288 -119.71605 24203 ft 255 kts 306°
2026-04-22 21:29 35.54564 -119.73120 24199 ft 255 kts 306°
2026-04-22 21:29 35.55839 -119.74636 24201 ft 255 kts 306°
2026-04-22 21:29 35.57114 -119.76151 24202 ft 255 kts 306°
2026-04-22 21:29 35.58388 -119.77667 24207 ft 255 kts 306°
2026-04-22 21:30 35.59658 -119.79178 24209 ft 255 kts 306°
2026-04-22 21:30 35.60932 -119.80694 24207 ft 255 kts 306°
2026-04-22 21:30 35.62204 -119.82210 24209 ft 255 kts 306°
2026-04-22 21:30 35.63476 -119.83726 24199 ft 255 kts 306°
2026-04-22 21:31 35.64747 -119.85239 24228 ft 255 kts 306°
2026-04-22 21:31 35.66019 -119.86756 24217 ft 255 kts 306°
2026-04-22 21:31 35.67291 -119.88272 24211 ft 255 kts 306°
2026-04-22 21:31 35.68562 -119.89788 24212 ft 255 kts 306°
2026-04-22 21:32 35.69834 -119.91304 24210 ft 254 kts 306°
2026-04-22 21:32 35.70673 -119.92308 24214 ft 254 kts 306°
2026-04-22 21:32 35.71942 -119.93824 24214 ft 254 kts 306°
2026-04-22 21:32 35.73210 -119.95340 24211 ft 254 kts 306°
2026-04-22 21:33 35.74474 -119.96852 24211 ft 254 kts 306°
2026-04-22 21:33 35.75741 -119.98370 24209 ft 254 kts 306°
2026-04-22 21:33 35.77009 -119.99887 24207 ft 254 kts 306°
2026-04-22 21:33 35.78274 -120.01403 24209 ft 254 kts 306°
2026-04-22 21:34 35.79541 -120.02920 24212 ft 254 kts 306°
2026-04-22 21:34 35.80806 -120.04438 24245 ft 254 kts 306°
2026-04-22 21:34 35.82073 -120.05959 24231 ft 255 kts 306°
2026-04-22 21:34 35.83342 -120.07483 24225 ft 255 kts 306°
2026-04-22 21:35 35.84612 -120.09007 24223 ft 255 kts 306°
2026-04-22 21:35 35.85882 -120.10532 24223 ft 255 kts 306°
2026-04-22 21:35 35.87152 -120.12058 24221 ft 255 kts 306°
2026-04-22 21:35 35.88421 -120.13581 24222 ft 254 kts 306°
2026-04-22 21:36 35.89687 -120.15102 24223 ft 254 kts 306°
2026-04-22 21:36 35.90956 -120.16623 24226 ft 254 kts 306°
2026-04-22 21:36 35.92218 -120.18145 24226 ft 254 kts 306°
2026-04-22 21:36 35.93477 -120.19668 24220 ft 253 kts 306°
2026-04-22 21:37 35.94736 -120.21185 24229 ft 253 kts 306°
2026-04-22 21:37 35.96009 -120.22683 24182 ft 253 kts 307°
2026-04-22 21:37 35.97270 -120.24181 24212 ft 250 kts 306°
2026-04-22 21:37 35.98494 -120.25699 24212 ft 250 kts 306°
2026-04-22 21:38 35.99729 -120.27217 24218 ft 251 kts 306°
2026-04-22 21:38 36.00974 -120.28731 24224 ft 251 kts 306°
2026-04-22 21:38 36.02198 -120.30251 24207 ft 250 kts 306°
2026-04-22 21:38 36.03459 -120.31745 24218 ft 252 kts 307°
2026-04-22 21:39 36.04717 -120.33246 24230 ft 251 kts 306°
2026-04-22 21:39 36.05962 -120.34761 24230 ft 252 kts 306°
2026-04-22 21:39 36.07215 -120.36276 24230 ft 252 kts 306°
2026-04-22 21:39 36.08471 -120.37793 24228 ft 253 kts 306°
2026-04-22 21:40 36.09724 -120.39317 24221 ft 253 kts 306°
2026-04-22 21:40 36.10979 -120.40838 24223 ft 253 kts 306°
2026-04-22 21:40 36.12218 -120.42336 24226 ft 252 kts 306°
2026-04-22 21:40 36.13477 -120.43851 24238 ft 253 kts 307°
2026-04-22 21:41 36.14740 -120.45374 24224 ft 253 kts 306°
2026-04-22 21:41 36.15983 -120.46913 24217 ft 253 kts 306°
2026-04-22 21:41 36.17239 -120.48443 24225 ft 254 kts 307°
2026-04-22 21:41 36.18501 -120.49972 24231 ft 254 kts 307°
2026-04-22 21:42 36.19743 -120.51515 24221 ft 253 kts 306°
2026-04-22 21:42 36.20998 -120.53047 24226 ft 254 kts 307°
2026-04-22 21:42 36.22284 -120.54556 24259 ft 255 kts 308°
2026-04-22 21:42 36.23567 -120.56080 24244 ft 256 kts 307°
2026-04-22 21:43 36.24845 -120.57616 24247 ft 257 kts 307°
2026-04-22 21:43 36.26110 -120.59170 24232 ft 256 kts 306°
2026-04-22 21:43 36.27359 -120.60741 24229 ft 256 kts 306°
2026-04-22 21:43 36.28615 -120.62303 24227 ft 256 kts 306°
2026-04-22 21:44 36.29882 -120.63858 24245 ft 257 kts 307°
2026-04-22 21:44 36.31155 -120.65414 24294 ft 257 kts 307°
2026-04-22 21:44 36.32438 -120.66976 24289 ft 259 kts 307°
2026-04-22 21:44 36.33724 -120.68551 24233 ft 260 kts 307°
2026-04-22 21:45 36.35006 -120.70126 24242 ft 259 kts 307°
2026-04-22 21:45 36.36291 -120.71697 24244 ft 260 kts 307°
2026-04-22 21:45 36.37579 -120.73270 24247 ft 260 kts 307°
2026-04-22 21:45 36.38860 -120.74845 24226 ft 258 kts 306°
2026-04-22 21:46 36.40134 -120.76418 24192 ft 259 kts 308°
2026-04-22 21:46 36.41436 -120.77949 24169 ft 256 kts 307°
2026-04-22 21:46 36.42698 -120.79501 24200 ft 255 kts 306°
2026-04-22 21:46 36.43944 -120.81061 24217 ft 254 kts 306°
2026-04-22 21:47 36.45196 -120.82617 24224 ft 255 kts 307°
2026-04-22 21:47 36.46452 -120.84174 24236 ft 255 kts 307°
2026-04-22 21:47 36.47726 -120.85760 23984 ft 265 kts 306°
2026-04-22 21:47 36.49047 -120.87412 23641 ft 274 kts 308°
2026-04-22 21:48 36.50427 -120.89095 23254 ft 281 kts 308°
2026-04-22 21:48 36.51836 -120.90813 22839 ft 286 kts 308°
2026-04-22 21:48 36.53262 -120.92563 22436 ft 289 kts 308°
2026-04-22 21:48 36.54695 -120.94333 22050 ft 291 kts 308°
2026-04-22 21:49 36.56138 -120.96110 21690 ft 292 kts 309°
2026-04-22 21:49 36.57577 -120.97882 21289 ft 291 kts 309°
2026-04-22 21:49 36.59017 -120.99659 20900 ft 292 kts 309°
2026-04-22 21:49 36.60458 -121.01439 20568 ft 292 kts 309°
2026-04-22 21:50 36.61886 -121.03190 20194 ft 292 kts 309°
2026-04-22 21:50 36.63331 -121.04945 19823 ft 288 kts 310°
2026-04-22 21:50 36.64761 -121.06655 19452 ft 282 kts 310°
2026-04-22 21:50 36.66149 -121.08347 19098 ft 277 kts 309°
2026-04-22 21:51 36.67503 -121.10025 18742 ft 273 kts 309°
2026-04-22 21:51 36.68837 -121.11689 18395 ft 270 kts 309°
2026-04-22 21:51 36.70155 -121.13335 18019 ft 267 kts 310°
2026-04-22 21:52 36.72754 -121.16573 17259 ft 261 kts 309°
2026-04-22 21:52 36.74029 -121.18176 16888 ft 261 kts 310°
2026-04-22 21:52 36.75307 -121.19798 16501 ft 264 kts 310°
2026-04-22 21:52 36.76600 -121.21435 16159 ft 266 kts 310°
2026-04-22 21:53 36.77905 -121.23071 15799 ft 266 kts 310°
2026-04-22 21:53 36.79214 -121.24700 15426 ft 265 kts 311°
2026-04-22 21:53 36.80521 -121.26311 15064 ft 263 kts 311°
2026-04-22 21:53 36.81814 -121.27897 14716 ft 258 kts 312°
2026-04-22 21:54 36.83082 -121.29452 14365 ft 253 kts 312°
2026-04-22 21:54 36.84323 -121.30994 13983 ft 250 kts 311°
2026-04-22 21:54 36.85546 -121.32524 13592 ft 248 kts 312°
2026-04-22 21:54 36.86758 -121.34041 13207 ft 246 kts 312°
2026-04-22 21:55 36.87963 -121.35549 12820 ft 245 kts 312°
2026-04-22 21:55 36.89164 -121.37057 12436 ft 245 kts 312°
2026-04-22 21:55 36.90367 -121.38566 12054 ft 245 kts 312°
2026-04-22 21:55 36.91571 -121.40081 11687 ft 246 kts 313°
2026-04-22 21:56 36.92775 -121.41605 11323 ft 247 kts 313°
2026-04-22 21:56 36.93987 -121.43121 10949 ft 246 kts 314°
2026-04-22 21:56 36.95199 -121.44636 10583 ft 247 kts 314°
2026-04-22 21:56 36.96416 -121.46165 10220 ft 249 kts 314°
2026-04-22 21:57 36.97642 -121.47709 9820 ft 250 kts 313°
2026-04-22 21:57 36.98866 -121.49251 9413 ft 249 kts 313°
2026-04-22 21:57 37.00091 -121.50779 9009 ft 248 kts 314°
2026-04-22 21:57 37.01317 -121.52299 8627 ft 248 kts 313°
2026-04-22 21:58 37.02546 -121.53825 8238 ft 249 kts 313°
2026-04-22 21:58 37.03768 -121.55359 7853 ft 247 kts 312°
2026-04-22 21:58 37.04969 -121.56864 7469 ft 243 kts 311°
2026-04-22 21:58 37.06145 -121.58373 7100 ft 241 kts 310°
2026-04-22 21:59 37.07312 -121.59873 6731 ft 240 kts 314°
2026-04-22 21:59 37.08495 -121.61342 6335 ft 239 kts 313°
2026-04-22 21:59 37.09669 -121.62806 5964 ft 237 kts 313°
2026-04-22 21:59 37.10844 -121.64254 5576 ft 236 kts 314°
2026-04-22 22:00 37.12020 -121.65691 5176 ft 236 kts 313°
2026-04-22 22:00 37.13167 -121.67110 4839 ft 233 kts 312°
2026-04-22 22:00 37.14312 -121.68538 4553 ft 230 kts 314°
2026-04-22 22:00 37.15454 -121.69922 4282 ft 227 kts 313°
2026-04-22 22:01 37.16571 -121.71292 4152 ft 222 kts 313°
2026-04-22 22:01 37.17661 -121.72629 4066 ft 216 kts 313°
2026-04-22 22:01 37.18731 -121.73929 4032 ft 212 kts 313°
2026-04-22 22:01 37.19786 -121.75205 3972 ft 211 kts 313°
2026-04-22 22:02 37.20846 -121.76488 3843 ft 213 kts 313°
2026-04-22 22:02 37.21901 -121.77789 3701 ft 213 kts 313°
2026-04-22 22:02 37.22957 -121.79078 3547 ft 210 kts 313°
2026-04-22 22:02 37.24006 -121.80342 3392 ft 210 kts 312°
2026-04-22 22:03 37.25059 -121.81615 3223 ft 210 kts 312°
2026-04-22 22:03 37.26100 -121.82892 3070 ft 209 kts 313°
2026-04-22 22:03 37.27122 -121.84190 2923 ft 208 kts 307°
2026-04-22 22:03 37.28028 -121.85598 2771 ft 206 kts 304°
2026-04-22 22:04 37.28890 -121.87035 2662 ft 206 kts 303°
2026-04-22 22:04 37.29746 -121.88466 2551 ft 203 kts 302°
2026-04-22 22:04 37.30574 -121.89882 2549 ft 200 kts 303°
2026-04-22 22:04 37.31390 -121.91295 2582 ft 200 kts 303°
2026-04-22 22:05 37.32202 -121.92720 2626 ft 201 kts 304°
2026-04-22 22:05 37.33012 -121.94159 2625 ft 203 kts 303°
2026-04-22 22:05 37.33826 -121.95604 2621 ft 202 kts 301°
2026-04-22 22:05 37.34698 -121.96991 2656 ft 203 kts 309°
2026-04-22 22:06 37.35684 -121.98262 2554 ft 202 kts 312°
2026-04-22 22:06 37.36667 -121.99492 2433 ft 198 kts 312°
2026-04-22 22:06 37.37642 -122.00690 2309 ft 195 kts 311°
2026-04-22 22:06 37.38640 -122.01831 2164 ft 195 kts 323°
2026-04-22 22:07 37.39964 -122.02174 2072 ft 199 kts
2026-04-22 22:07 37.41143 -122.01258 1956 ft 209 kts 47°
2026-04-22 22:07 37.42001 -121.99783 1739 ft 212 kts 70°
2026-04-22 22:07 37.41968 -121.97988 1478 ft 208 kts 114°
2026-04-22 22:08 37.41021 -121.97019 1001 ft 163 kts 165°
2026-04-22 22:08 37.40038 -121.96656 664 ft 129 kts 161°
2026-04-22 22:08 37.39357 -121.96274 552 ft 87 kts 147°
2026-04-22 22:08 37.38879 -121.95841 467 ft 84 kts 137°
2026-04-22 22:09 37.38451 -121.95355 453 ft 85 kts 139°
2026-04-22 22:09 37.37964 -121.94852 334 ft 94 kts 136°
2026-04-22 22:09 37.37486 -121.94326 191 ft 87 kts 135°
2026-04-22 22:09 37.37041 -121.93836 70 ft 83 kts 135°
2026-04-22 22:10 37.36662 -121.93417 56 ft 51 kts 139°
2026-04-22 22:10 37.36482 -121.93224 58 ft 25 kts 141°
2026-04-22 22:10 37.36361 -121.93094 55 ft 21 kts 140°
2026-04-22 22:10 37.36273 -121.93044 59 ft 9 kts 186°
2026-04-22 22:11 37.36230 -121.93076 56 ft 7 kts 230°
2026-04-22 22:11 37.36193 -121.93126 54 ft 9 kts 227°
2026-04-22 22:11 37.36151 -121.93186 54 ft 9 kts 227°
2026-04-22 22:11 37.36126 -121.93227 52 ft 4 kts 252°
2026-04-22 22:12 37.36124 -121.93247 52 ft 1 kts 272°
2026-04-22 22:12 37.36125 -121.93253 53 ft 1 kts 272°
2026-04-22 22:12 37.36138 -121.93276 55 ft 7 kts 321°
2026-04-22 22:12 37.36151 -121.93326 56 ft 7 kts 250°
2026-04-22 22:13 37.36146 -121.93399 56 ft 7 kts 288°
2026-04-22 22:13 37.36158 -121.93424 52 ft 4 kts 308°
2026-04-22 22:13 37.36166 -121.93461 51 ft 0 kts 232°